Precipitable_Water
0.98 1.08 1.12 1.17 1.20 1.27 1.23 1.14 1.00 0.85 0.92 0.97 1.04 1.08 1.07 1.04 1.02 1.08 1.17 1.25 1.36 1.32 1.34 1.46 1.38 1.29 1.26 1.30 1.28 1.24 1.28 1.26 1.08
0.98 1.02 1.05 1.06 1.11 1.11 1.07 1.00 0.91 0.89 0.97 1.05 1.06 1.07 1.06 1.05 1.05 1.12 1.20 1.31 1.35 1.32 1.33 1.36 1.33 1.37 1.39 1.39 1.43 1.47 1.47 1.46 1.38
0.98 1.02 1.02 1.06 1.07 1.07 1.05 1.02 1.02 1.05 1.06 1.07 1.07 1.07 1.07 1.07 1.05 1.06 1.12 1.14 1.18 1.17 1.11 1.13 1.20 1.22 1.21 1.21 1.24 1.29 1.38 1.40 1.45
0.95 0.98 1.00 1.01 0.98 1.00 1.03 1.08 1.11 1.10 1.08 1.05 1.05 1.06 1.07 1.06 1.05 1.05 1.05 1.17 1.15 1.11 1.10 1.05 1.02 0.99 0.97 0.99 1.03 1.03 1.03 1.14 1.24
1.00 1.01 1.01 1.04 1.09 1.13 1.17 1.18 1.16 1.10 1.05 1.02 1.07 1.08 1.07 1.06 1.06 1.06 1.09 1.13 1.07 1.03 1.03 0.96 0.92 0.88 0.86 0.86 0.86 0.85 0.84 0.85 0.87
1.05 1.06 1.11 1.15 1.17 1.17 1.19 1.24 1.14 1.08 1.08 1.08 1.07 1.06 1.05 1.03 1.03 1.02 1.07 1.06 1.01 0.97 0.97 0.91 0.85 0.78 0.75 0.75 0.73 0.72 0.71 0.69 0.68
1.04 1.07 1.13 1.18 1.21 1.22 1.23 1.20 1.04 0.96 0.97 1.02 1.02 0.99 0.97 0.96 0.95 1.00 1.02 1.03 0.95 0.88 0.86 0.85 0.80 0.72 0.67 0.66 0.65 0.64 0.63 0.61 0.59
1.08 1.05 1.13 1.19 1.22 1.22 1.22 1.16 1.04 0.95 0.89 0.90 0.94 0.91 0.85 0.81 0.84 0.83 0.96 1.02 0.91 0.81 0.77 0.74 0.70 0.66 0.64 0.64 0.63 0.63 0.62 0.61 0.61
1.15 1.10 1.08 1.15 1.20 1.18 1.18 1.11 1.05 0.99 0.94 0.90 0.91 0.82 0.72 0.69 0.71 0.72 0.88 0.91 0.86 0.78 0.72 0.70 0.68 0.66 0.64 0.64 0.63 0.62 0.61 0.61 0.60
1.20 1.21 1.19 1.14 1.18 1.17 1.14 1.08 0.99 0.96 0.92 0.88 0.85 0.74 0.66 0.66 0.67 0.75 0.85 0.87 0.83 0.74 0.72 0.69 0.66 0.65 0.67 0.67 0.65 0.65 0.63 0.61 0.60
1.17 1.21 1.23 1.22 1.15 1.16 1.13 1.07 0.99 0.94 0.90 0.85 0.82 0.71 0.65 0.64 0.67 0.73 0.83 0.84 0.78 0.73 0.68 0.63 0.63 0.66 0.71 0.71 0.72 0.70 0.68 0.67 0.67
1.16 1.15 1.18 1.23 1.20 1.16 1.11 1.06 0.99 0.94 0.90 0.84 0.79 0.71 0.66 0.68 0.69 0.73 0.76 0.76 0.70 0.67 0.64 0.64 0.63 0.66 0.68 0.68 0.70 0.70 0.67 0.66 0.66
1.22 1.16 1.15 1.23 1.24 1.17 1.07 1.03 0.98 0.94 0.89 0.82 0.80 0.72 0.67 0.69 0.68 0.71 0.71 0.68 0.66 0.64 0.64 0.61 0.63 0.63 0.63 0.66 0.66 0.65 0.65 0.65 0.65
1.24 1.21 1.19 1.23 1.23 1.20 1.08 1.01 1.01 0.96 0.90 0.86 0.84 0.76 0.65 0.67 0.69 0.71 0.71 0.67 0.63 0.62 0.61 0.60 0.60 0.59 0.61 0.62 0.62 0.62 0.62 0.60 0.61
1.30 1.27 1.23 1.25 1.22 1.19 1.12 1.02 1.04 1.00 0.92 0.87 0.86 0.80 0.69 0.68 0.70 0.71 0.71 0.66 0.63 0.62 0.62 0.61 0.60 0.59 0.60 0.60 0.59 0.59 0.61 0.62 0.62
1.34 1.31 1.27 1.24 1.21 1.19 1.18 1.06 1.05 1.02 0.97 0.90 0.88 0.85 0.74 0.71 0.71 0.73 0.72 0.67 0.66 0.64 0.63 0.61 0.58 0.57 0.57 0.55 0.56 0.58 0.61 0.61 0.62
1.32 1.34 1.31 1.27 1.22 1.19 1.20 1.11 1.05 1.05 1.04 0.93 0.91 0.80 0.77 0.75 0.74 0.74 0.73 0.70 0.67 0.64 0.64 0.63 0.60 0.58 0.56 0.54 0.55 0.55 0.56 0.57 0.60
1.30 1.34 1.35 1.30 1.27 1.19 1.22 1.18 1.13 1.07 1.07 1.04 0.98 0.85 0.79 0.80 0.80 0.76 0.75 0.71 0.69 0.67 0.67 0.67 0.65 0.61 0.57 0.56 0.56 0.58 0.59 0.60 0.61
1.24 1.30 1.33 1.32 1.29 1.25 1.25 1.26 1.20 1.17 1.09 1.06 1.06 1.06 1.02 0.88 0.80 0.81 0.79 0.77 0.71 0.70 0.69 0.67 0.66 0.63 0.61 0.58 0.57 0.58 0.58 0.59 0.61
1.15 1.24 1.25 1.22 1.23 1.22 1.25 1.26 1.22 1.19 1.13 1.09 1.09 1.07 1.00 0.97 0.94 0.79 0.81 0.79 0.75 0.75 0.69 0.71 0.72 0.67 0.62 0.59 0.59 0.58 0.58 0.58 0.59
Wind_Speed
3 3 3 3 3 4 4 5 5 5 5 5 6 6 7 7 7 7 7 8 8 7 8 8 9 8 10 10 12 12 12 11 10
3 3 3 3 3 3 4 4 4 4 5 5 6 6 6 6 7 6 7 6 6 7 7 8 8 8 8 9 9 8 9 9 8
4 4 4 4 4 4 4 4 4 5 5 6 6 7 6 7 7 7 8 8 8 9 9 10 10 10 11 11 11 10 9 8 7
5 5 5 5 5 5 5 5 5 6 6 7 7 7 7 7 8 8 9 9 9 10 10 10 11 12 12 12 11 11 11 11 11
6 6 6 6 6 6 6 6 6 7 7 7 7 7 7 8 9 10 10 10 11 11 11 12 12 13 12 12 12 12 12 12 12
9 8 8 7 7 7 7 8 8 8 8 8 8 9 10 10 10 11 11 12 12 12 13 13 13 13 13 13 12 12 12 13 13
11 10 10 9 9 9 8 8 9 9 9 9 10 11 11 12 12 12 13 13 13 13 13 13 13 13 13 13 12 12 12 13 13
13 12 12 11 11 10 10 10 10 10 10 11 11 12 12 12 13 13 13 13 14 14 13 13 13 13 13 12 12 12 13 13 13
15 15 14 14 13 13 12 12 12 12 12 12 13 13 13 14 14 14 14 13 14 14 13 13 12 12 12 13 13 13 14 14 14
18 17 17 16 16 15 14 14 13 13 13 14 14 14 15 15 15 14 14 14 14 14 13 13 13 13 13 13 14 14 15 15 16
20 20 19 19 18 17 17 16 15 15 15 15 15 15 15 14 14 14 14 14 14 14 14 14 14 14 14 15 15 15 16 17 17
23 22 22 22 21 19 19 18 17 16 16 16 16 16 15 15 15 14 14 14 14 14 14 14 14 14 15 15 15 16 17 18 18
26 25 24 24 23 22 21 20 19 18 18 17 17 16 16 15 15 15 15 15 14 14 14 14 14 15 15 15 16 17 17 19 19
28 27 26 26 25 24 23 22 21 20 19 18 18 17 17 17 17 16 16 15 15 15 15 15 15 16 16 17 17 18 19 20 21
31 29 29 28 27 27 26 24 23 22 21 19 19 19 19 19 18 18 17 17 17 17 17 17 17 17 18 19 20 20 21 22 22
33 32 31 31 30 29 28 26 25 24 23 21 21 21 21 20 20 20 19 19 19 19 19 19 19 19 20 21 22 23 23 24 24
36 35 34 33 32 31 30 29 27 26 25 23 22 21 22 23 22 22 22 21 21 21 21 22 22 22 23 23 24 25 25 26 26
39 38 36 35 35 34 33 32 30 29 28 27 24 22 23 22 23 24 24 24 24 24 24 24 25 25 26 26 27 27 27 28 29
41 40 39 38 37 36 36 35 34 32 30 29 29 28 26 24 24 24 25 26 27 27 27 28 27 27 28 29 29 29 30 31 32
44 43 42 41 40 40 39 37 37 35 33 32 30 31 30 28 27 28 28 28 29 29 29 29 29 30 30 31 32 32 33 33 35
Wind_Direction
268 274 258 256 257 249 255 267 278 278 272 272 276 282 283 283 289 295 301 298 302 307 298 309 315 307 311 311 304 300 299 295 293
272 266 256 256 255 258 264 272 276 274 273 277 281 286 288 284 290 294 299 302 302 307 310 312 320 315 323 326 330 331 324 309 293
269 260 259 257 260 263 267 272 275 278 282 283 285 284 284 286 290 293 297 298 297 300 302 304 305 306 308 311 312 312 313 318 313
266 261 258 258 261 263 264 270 278 282 285 287 287 285 283 285 290 293 297 294 297 300 301 302 304 305 304 306 306 305 302 298 296
261 260 260 260 261 262 266 274 279 284 286 285 285 285 285 287 289 292 294 293 296 298 296 299 301 303 303 303 302 301 300 297 295
258 259 260 261 263 265 270 274 279 283 284 284 283 284 285 287 288 289 289 292 294 296 295 296 299 300 300 300 300 300 299 297 294
256 257 258 259 262 265 270 274 278 281 282 282 284 285 285 286 287 288 289 290 293 295 295 296 297 299 300 300 300 299 299 298 296
254 256 257 259 260 265 268 271 276 279 281 283 284 285 286 287 287 288 287 288 293 295 295 296 297 298 299 300 300 300 300 299 297
254 255 256 258 260 262 266 269 271 275 279 282 283 284 284 285 286 287 285 286 290 293 294 294 296 297 298 299 299 299 300 300 298
255 255 256 258 258 260 263 266 268 272 277 280 282 283 284 285 285 287 283 283 287 291 291 292 294 296 296 298 299 299 299 299 298
254 255 256 257 258 259 261 263 266 271 276 279 282 282 282 282 283 285 284 283 286 287 289 291 292 294 295 297 298 299 300 300 298
254 255 256 256 256 257 258 261 264 269 274 278 280 279 279 279 281 282 282 283 284 285 288 290 291 293 295 297 298 299 300 300 299
254 255 256 253 253 254 256 259 262 267 272 276 277 276 276 277 278 279 280 281 282 283 286 288 290 293 294 296 298 300 302 301 300
253 254 253 251 252 253 255 257 260 265 268 271 274 274 274 274 275 276 276 278 280 282 284 285 287 290 293 293 296 299 300 302 300
251 252 252 250 251 252 253 255 258 263 264 268 271 272 272 272 272 272 273 275 277 279 282 282 285 287 289 291 294 297 298 300 300
251 252 251 250 250 251 251 253 256 260 261 266 270 271 271 271 270 270 271 273 274 276 278 280 282 284 288 290 293 295 296 298 298
251 251 251 250 250 250 249 251 254 258 257 264 269 270 270 269 268 268 269 271 273 274 277 279 280 282 285 289 291 293 294 296 296
250 250 250 250 249 249 249 251 252 255 256 259 265 269 269 271 269 267 269 270 272 273 276 278 279 281 284 287 289 291 293 294 296
250 250 250 250 249 249 250 250 251 253 256 257 260 267 268 272 271 269 269 272 273 273 276 276 278 281 283 285 287 289 291 293 294
251 250 250 250 251 251 250 250 250 251 254 256 262 264 266 268 269 274 275 274 274 274 276 276 276 279 282 284 286 288 290 292 293